Tracking 18980 objects as of 19-Feb-2018
HD Live streaming from Space Station
objects crossing your sky now

SL-8 R/B

Track SL-8 R/B now!
10-day predictions


NORAD ID: 22591
Int'l Code: 1993-020B
Perigee: 961.1 km
Apogee: 999.4 km
Inclination: 82.9 °
Period: 104.5 minutes
Semi major axis: 7351 km
RCS: 6.0922 m2 (large)
Launch date: April 1, 1993
Source: Commonwealth of Independent States (former USSR) (CIS)
Launch site: PLESETSK MISSILE AND SPACE COMPLEX (PKMTR)

Note: This is a ROCKET BODY
aabbcc
Your satellite tracking list
Your tracking list is empty




NASA's NSSDC Master Catalog

Two Line Element Set (TLE):
1 22591U 93020B   18049.95720747 -.00000035 +00000-0 -50179-4 0  9992
2 22591 082.9279 216.0799 0026021 045.4398 064.1255 13.77401999250455
Source of the keplerian elements: AFSPC